Regional Weather Roundup
Issued by NWS Charleston, SC

Current Version | Previous Version | Graphics & Text | Print | Product List | Glossary On
Versions: 1 2 3 4 5 6 7 8 9 10 11 12 13 14 15 16 17 18 19 20 21 22 23 24 25 26 27 28 29 30 31 32 33 34 35 36 37 38 39 40 41 42 43 44 45 46 47 48 49 50
000
ASUS42 KCHS 281725
RWRCHS

REGIONAL WEATHER ROUNDUP
NATIONAL WEATHER SERVICE CHARLESTON SC
100 PM EDT THU AUG 28 2014

NOTE: "FAIR" INDICATES FEW OR NO CLOUDS BELOW 12,000 FEET WITH NO
SIGNIFICANT WEATHER AND/OR OBSTRUCTIONS TO VISIBILITY.

NOT ALL STATIONS ARE QUALITY CONTROLLED BY THE NATIONAL
WEATHER SERVICE. USE DATA WITH CAUTION...ESPECIALLY
DEWPOINT OBSERVATIONS.

SCZ027-030-031-034>040-042>050-281800-
...SOUTH CAROLINA...

CITY           SKY/WX    TMP DP  RH WIND       PRES   REMARKS
N CHARLESTON   MOSUNNY   88  62  41 W5        30.03F
WATERFRONT PRK   N/A     84 N/A N/A S6          N/A
FORT JOHNSON   NOT AVBL
MOUNT PLEASANT FAIR      88  64  45 W3        30.03F
JOHNS ISLAND   SUNNY     90  64  43 SW3       30.04F HX  91
PINOPOLIS        N/A     86  66  51 NE2       29.98S
MONCKS CORNER    N/A     88  68  51 SW3       30.03F HX  91
SUMMERVILLE    FAIR      88  63  42 W6        30.04F
BEAUFORT MCAS  MOSUNNY   89  65  44 CALM      30.04F HX  91
BEAUFORT ARPT  FAIR      86  63  45 E3        30.03F
HILTON HEAD IS SUNNY     86  66  51 NE6       30.06S
GEORGETOWN     NOT AVBL
WALTERBORO     SUNNY     90  46  22 NE3       30.03F
ORANGEBURG     SUNNY     89  58  34 VRB5      30.04F
BARNWELL       FAIR      91  57  31 SW7       30.03F HX  90
AIKEN          FAIR      90  61  37 SE3       30.07F
MANNING        FAIR      90  63  40 S3        30.02F HX  90
KINGSTREE      NOT AVBL
COLUMBIA       MOSUNNY   90  57  32 S5        30.02F
SUMTER         SUNNY     90  62  38 N6        30.01F HX  90
FLORENCE       SUNNY     90  59  35 SW7       30.01F
MYRTLE BEACH   SUNNY     88  63  42 W9        30.02F
N MYRTLE BEACH NOT AVBL

$$

GAZ063-065-086>088-099>101-113>116-118-119-134-136>141-150-281800-
...GEORGIA...

CITY           SKY/WX    TMP DP  RH WIND       PRES   REMARKS
SAVANNAH ARPT  MOSUNNY   90  62  39 CALM      30.04F HX  90
HUNTER AAF     SUNNY     88  62  42 E7        30.02F
FORT STEWART   SUNNY     89  58  34 VRB6      30.03F
STATESBORO     NOT AVBL
SYLVANIA       SUNNY     90  66  45 E5        30.03F HX  92
CLAXTON        NOT AVBL
THOMSON        SUNNY     92  65  40 MISG      30.07F HX  93
AUGUSTA-BUSH   SUNNY     91  58  32 SE5       30.02F HX  90
AUGUSTA-DANIEL SUNNY     89  55  31 SE3       30.04F
SWAINSBORO     FAIR      91  59  33 CALM      30.03F HX  90
VIDALIA          N/A     90  59  35 CALM      30.03F
ALMA           SUNNY     88  60  38 E6        30.03F
WAYCROSS       SUNNY     92  64  38 E3        30.02F HX  93
JESUP            N/A     91  61  35 CALM      30.03S HX  91
BRUNSWICK      MOSUNNY   86  64  48 SE6       30.04S
SAINT SIMONS   SUNNY     84  68  58 E8        30.04F

$$

SCZ027-028-034-036>038-045-046-048>050-GAZ119-141-281800-
...LAKE AND SUPPLEMENTAL COASTAL OBSERVATIONS...

STATION/POSITION TIME  TEMP    WIND        PRES    WAVE   SWELL
                       AIR SEA DIR/SP/G            HT/PER HT/PER/DIR
                 (UTC) (F)     (DEG/KT/KT) (MB)    (FT/S) (FT/S/D)
UPR LAKE MARION  NOT AVBL
WINYAH BAY       1700   85     270/  5     1017.0S
LAKE MURRAY      1600   84     180/  6/  7 1016.3F
ACE BASIN NERRS  1700   86     210/  2     1017.0F
FORT PULASKI     1700   84      90/  5/  5 1017.5F
SAPELO ISLAND    1700   86      70/  3     1018.0S

$$

ANZ835-935-AMZ111-154-330-350-352-354-374-450-454-472-281800-
...C-MAN AND BUOY OBSERVATIONS...

STATION/POSITION TIME  TEMP    WIND        PRES    WAVE   SWELL
                       AIR SEA DIR/SP/G            HT/PER HT/PER/DIR
                 (UTC) (F)     (DEG/KT/KT) (MB)    (FT/S) (FT/S/D)
FOLLY BEACH CMAN 1700   84     190/  3/  4 1017.5F
BUOY 41004       1700   80 83  310/  6/  8 1017.0F   4/10   3/10
BUOY 41008       1700   80 85   20/  6/  8 1017.2F   3/11   3/ 80/11
5E ST. MARYS GA  1700      84                N/A     3/10   2/ 90/11
FRYING PAN BUOY  NOT AVBL
BUOY 41025       1700   80     260/ 14/ 16 1014.8S   5/11   5/130/11
CAPE LOOKOUT NC  1700   81     230/ 12/ 14 1015.5F
BUOY 41002       1613   78 81  340/ 12/ 14 1017.8    8/ 9   7/120/ 9
BUOY 41010       1700   83 84  130/  4/  6 1017.3F   6/10   5/ 40/10
BUOY 41012       NOT AVBL
ST AUGUSTINE FL  1700   79      40/  6/  7 1017.9F
CAPERS NEARSHORE 1600   83     280/  4/  4   N/A
FRIPP NEARSHORE  NOT AVBL


$$



USA.gov is the U.S. government's official web portal to all federal, state and local government web resources and services.